STARLINK-2490

decayed
NORAD ID: 48147 Int'l Des: 2021-027 Owner: SPXS Country: US Constellation: starlink
LEOCIRCULAR

关于 STARLINK-2490

正在加载描述...

高度历史

Altitude vs Time

uPlot chart will show altitude changes over time

两行轨道根数

1 48147U 21027BH 24225.19255505 .28960242 12130-4 45489-2 0 9999
2 48147 53.0286 165.7404 0003247 216.0867 285.1518 16.33123474186338
Epoch: Aug 12, 2024 • Age: 9651 hours

当前状态

Position data unavailable
发射日期 Apr 7, 2021
运行时间 4.4 years
衰减日期 Aug 12, 2024
类型 internet

技术详情

分类 Payload
质量 260.00 kg
干质量 248.00 kg
总质量 260.00 kg
长度 0.20 m
直径 2.80 m
跨度 9.00 m
形状 Box + pan
制造商 SPXS
平台类型 Starlink
阶段状态 Unknown Transfer Status
所有者/国家 SPXS/US

大型星座

Loading constellations...